Location: Doux
(49.5045°N, 4.4321°E)
Time: 13:22:18
(UTC+00:00)

Cosmos 1242 Rocket - Pass Details

Date: 23 May 2024
Orbit: 321 x 335 km, 81.1° (Epoch: 16 June)

Event Time Altitude Azimuth Distance (km) Brightness Sun altitude
Exits shadow 01:10:15 16° 125° (SE) 1,073 4.2 -17.0°
Maximum altitude 01:11:29 20° 92° (E) 931 4.2 -16.9°
Drops below altitude 10° 01:13:44 10° 43° (NE) 1,374 6.0 -16.8°
Sets 01:16:03 0° 25° (NNE) 2,233 7.8 -16.6°
